Dauntless Aviation
Airports North America Canada
CYLW
YLW

Kelowna International Airport

Kelowna, CANADA

Airport Info
Suggest Updated Information for this Airport

Location

Latitude / Longitude: 49°57'21"N / 119°22'40"W
  49°57.366'N / 119°22.68'W
  49.9561 / -119.3780

Nearby radio navigation aids

EX RUTLAND NDB. 335.5° 1.0nm from EX to field.
LW KELOWNA NDB. 147.1° 6.5nm from LW to field.

Runway Information

Runway 16 /34

Dimensions: 7300 x 200 ft.
Surface: ASP
 
Runway 16
Runway 34
Latitude: 49.966 49.946278
Longitude: -119.378961 -119.376461
Elevation: 1409 ft. 1409 ft.
Runway true heading: 166.6 346.6
 

Instrument Procedures

  Airport Diagram
  Parking Areas (Apron 1)
  Parking Areas (Apron 3)
Satellite photo at:
Airport distance calculator
From:
Weather Reports

METAR

CYLW

CYLW 220200Z AUTO 20005KT 9SM OVC095 18/03 A2976 RMK SLP079 DENSITY ALT 2200FT
CWJV
17.4nm N
CWJV 220200Z AUTO 25002KT 19/02 RMK AO1 SLP072 T01930020 53005
CWUS
25.6nm S
CWUS 220200Z AUTO 14001KT 17/06 RMK AO1 SLP093 T01660055 53007
CYYF
30.4nm S
CYYF 220200Z 35003KT 15SM OVC095 18/05 A2976 RMK AC8 SLP079 DENSITY ALT 2000FT

TAF

CYLW
TAF CYLW 220038Z 2201/2213 35006KT P6SM SCT090 TEMPO 2201/2213 BKN090 RMK FCST BASED ON AUTO OBS. NXT FCST BY 220700Z
CYYF
30.4nm S
TAF CYYF 220038Z 2201/2213 35008KT P6SM BKN090 RMK NXT FCST BY 220700Z
Safelog

 

Dauntless Aviation

© 2007-2019 Dauntless Aviation, all rights reserved
Information provided via PilotNav comes from a variety of official and unofficial data sources. As errors are possible, do not use PilotNav for primary flight planning purposes. Verify any information that you receive via PilotNav with current and canonical charts and other official documents. The material in this database is subject to database copyrights held by Dauntless Aviation and may not be copied without the express permission of Dauntless Aviation - licenses for use of part of all of this data are available for purchase; enquire via the Dauntless Aviation helpdesk. A number of mechanisms and markers exist in the database to protect against and identify infringement / copyright. Automated queries against this website are stictly prohibited, and all activity is logged and analyzed.